User: anonymous   Login
Location: Unspecified
(0.0000°N, 0.0000°E)
Time: 11:36:00
(UTC+00:00)
Language:

X-37B - Orbit

View from above orbital plane
View from above orbital plane
View from above satellite
View from above satellite

Ground track
Ground track

The orbit data is extracted from the following two-line orbital elements,

1 80000U          20139.01686850  .00000000  00000-0  50000-4 0    09
2 80000  44.9398 319.5572 0001000   0.0000 107.1462 15.59403495    06
Epoch (UTC): 18 May 2020 00:24:17
Eccentricity: 0.0001000
inclination: 44.9398°
perigee height: 389 km
apogee height: 390 km
right ascension of ascending node: 319.5572°
argument of perigee: 0.0000°
revolutions per day: 15.59403495
mean anomaly at epoch: 107.1462°
orbit number at epoch: 0

The dashed part of the orbit path shows where the satellite is in the earth's shadow,  

DLR